Location: Pedholt
(56.0260°N, 10.2097°E)
Time: 06:30:04
(UTC+00:00)

CZ-2D R/B - Pass Details

Date: 14 July 2020
Orbit: 792 x 844 km, 98.7° (Epoch: 14 August)

Event Time Altitude Azimuth Distance (km) Brightness Sun altitude
Rises 00:36:18 0° 19° (NNE) 3,344 7.6 -10.9°
Reaches altitude 10° 00:38:45 10° 25° (NNE) 2,416 6.1 -10.8°
Maximum altitude 00:43:53 46° 99° (E) 1,105 2.9 -10.6°
Drops below altitude 10° 00:49:03 10° 172° (S) 2,432 4.1 -10.3°
Enters shadow 00:49:08 10° 172° (S) 2,468 4.1 -10.3°
